Weather History for Mammoth, CA

Change the Weather History Date:

Saturday, July 6, 2013

  Actual Average Record
Temperature  
Mean Temperature 70 °F -  
Max Temperature 84 °F 76 °F 86 °F (2004)
Min Temperature 55 °F 62 °F 37 °F (2012)
Cooling Degree Days 4    
Growing Degree Days 20 (Base 50)    
Moisture  
Dew Point 29 °F    
Average Humidity 22    
Maximum Humidity 41    
Minimum Humidity 12    
Precipitation  
Precipitation 0.00 in - - ()
Sea Level Pressure  
Sea Level Pressure 30.11 in    
Wind  
Wind Speed 11 mph (SW)    
Max Wind Speed 25 mph    
Max Gust Speed 37 mph    
Visibility 10 miles    
Events      
Averages and records for this station are not official NWS values.
T = Trace of Precipitation, MM = Missing Value Source: NWS Daily Summary

Daily Weather History Graph

Daily Weather History Graph

Search for Another Location

Airport:

Trip Planner

Search our weather history database for the weather conditions in past years. The results will help you decide how hot, cold, wet, or windy it might be!

Date:

Astronomy

Jul. 06, 2013 Rise Set
Actual Time 5:40 AM PDT 8:19 PM PDT
Civil Twilight 5:09 AM PDT 8:50 PM PDT
Nautical Twilight 4:30 AM PDT 9:29 PM PDT
Astronomical Twilight 3:47 AM PDT 10:12 PM PDT
Moon 4:29 AM PDT (7/6) 7:06 PM PDT (7/6)
Length of Visible Light 15h 41m
Length of Day
14h 39m
Waning Crescent, 2% of the Moon is Illuminated
Jul 6
Waning Crescent
Jul 8
New
Jul 15
First Quarter
Jul 22
Full
Jul 29
Last Quarter

Hourly Weather History & Observations

Time (PDT) Temp. Dew Point Humidity Pressure Visibility Wind Dir Wind Speed Gust Speed Precip Events Conditions
12:15 AM 69.8 °F 32.0 °F 25% 30.12 in 10.0 mi SSW 13.8 mph 27.6 mph N/A   Clear
12:35 AM 69.8 °F 32.0 °F 25% 30.11 in 10.0 mi SSW 17.3 mph 27.6 mph N/A   Clear
12:55 AM 68.0 °F 30.2 °F 24% 30.11 in 10.0 mi SSW 13.8 mph 25.3 mph N/A   Clear
1:15 AM 62.6 °F 33.8 °F 34% 30.12 in 10.0 mi Calm Calm - N/A   Clear
1:35 AM 62.6 °F 35.6 °F 37% 30.12 in 10.0 mi Calm Calm - N/A   Clear
1:55 AM 66.2 °F 30.2 °F 26% 30.12 in 10.0 mi South 8.1 mph - N/A   Clear
2:15 AM 64.4 °F 30.2 °F 28% 30.12 in 10.0 mi WSW 11.5 mph - N/A   Clear
2:35 AM 64.4 °F 32.0 °F 30% 30.12 in 10.0 mi West 10.4 mph - N/A   Clear
2:55 AM 66.2 °F 30.2 °F 26% 30.12 in 10.0 mi West 9.2 mph 17.3 mph N/A   Clear
3:15 AM 66.2 °F 30.2 °F 26% 30.11 in 10.0 mi South 6.9 mph 17.3 mph N/A   Clear
3:35 AM 68.0 °F 28.4 °F 23% 30.11 in 10.0 mi SSW 10.4 mph 25.3 mph N/A   Clear
3:55 AM 68.0 °F 28.4 °F 23% 30.11 in 10.0 mi SSW 9.2 mph 25.3 mph N/A   Clear
4:15 AM 64.4 °F 32.0 °F 30% 30.11 in 10.0 mi North 5.8 mph - N/A   Clear
4:35 AM 62.6 °F 32.0 °F 32% 30.11 in 10.0 mi West 3.5 mph - N/A   Clear
4:55 AM 59.0 °F 30.2 °F 34% 30.11 in 10.0 mi Calm Calm - N/A   Clear
5:15 AM 57.2 °F 30.2 °F 36% 30.11 in 10.0 mi Calm Calm - N/A   Clear
5:35 AM 55.4 °F 30.2 °F 38% 30.12 in 10.0 mi SE 6.9 mph - N/A   Clear
5:55 AM 55.4 °F 32.0 °F 41% 30.12 in 10.0 mi SSE 5.8 mph - N/A   Clear
6:15 AM 55.4 °F 32.0 °F 41% 30.12 in 10.0 mi West 3.5 mph - N/A   Clear
6:35 AM 55.4 °F 32.0 °F 41% 30.12 in 10.0 mi Calm Calm - N/A   Clear
6:55 AM 59.0 °F 32.0 °F 36% 30.12 in 10.0 mi NW 3.5 mph - N/A   Clear
7:15 AM 60.8 °F 32.0 °F 34% 30.12 in 10.0 mi Calm Calm - N/A   Clear
7:35 AM 62.6 °F 37.4 °F 39% 30.12 in 10.0 mi SSE 6.9 mph - N/A   Clear
7:55 AM 66.2 °F 37.4 °F 35% 30.12 in 10.0 mi East 5.8 mph - N/A   Clear
8:15 AM 69.8 °F 37.4 °F 31% 30.12 in 10.0 mi SE 9.2 mph - N/A   Clear
8:35 AM 69.8 °F 35.6 °F 28% 30.12 in 10.0 mi ENE 4.6 mph - N/A   Clear
8:55 AM 71.6 °F 37.4 °F 29% 30.13 in 10.0 mi ESE 8.1 mph - N/A   Clear
9:15 AM 73.4 °F 28.4 °F 19% 30.13 in 10.0 mi SE 10.4 mph 17.3 mph N/A   Clear
9:35 AM 77.0 °F 28.4 °F 17% 30.13 in 10.0 mi East 10.4 mph 16.1 mph N/A   Clear
9:55 AM 77.0 °F 24.8 °F 14% 30.13 in 10.0 mi Calm Calm - N/A   Clear
10:15 AM 78.8 °F 26.6 °F 15% 30.13 in 10.0 mi South 13.8 mph 20.7 mph N/A   Clear
10:35 AM 77.0 °F 26.6 °F 16% 30.13 in 10.0 mi SW 16.1 mph 24.2 mph N/A   Clear
10:55 AM 78.8 °F 26.6 °F 15% 30.12 in 10.0 mi WSW 12.7 mph 28.8 mph N/A   Clear
11:15 AM 80.6 °F 28.4 °F 15% 30.12 in 10.0 mi South 15.0 mph 23.0 mph N/A   Scattered Clouds
11:35 AM 82.4 °F 26.6 °F 13% 30.12 in 10.0 mi SSW 23.0 mph 27.6 mph N/A   Scattered Clouds
11:55 AM 82.4 °F 28.4 °F 14% 30.12 in 10.0 mi SSE 13.8 mph 31.1 mph N/A   Scattered Clouds
12:15 PM 84.2 °F 28.4 °F 13% 30.13 in 10.0 mi SSW 11.5 mph 33.4 mph N/A   Scattered Clouds
12:35 PM 84.2 °F 26.6 °F 12% 30.12 in 10.0 mi SSW 15.0 mph 26.5 mph N/A   Scattered Clouds
12:55 PM 82.4 °F 26.6 °F 13% 30.11 in 10.0 mi SW 15.0 mph 29.9 mph N/A   Clear
1:15 PM 82.4 °F 24.8 °F 12% 30.11 in 10.0 mi SW 6.9 mph 28.8 mph N/A   Scattered Clouds
1:35 PM 82.4 °F 26.6 °F 13% 30.11 in 10.0 mi WSW 6.9 mph 25.3 mph N/A   Clear
1:55 PM 84.2 °F 28.4 °F 13% 30.10 in 10.0 mi West 10.4 mph 31.1 mph N/A   Mostly Cloudy
2:15 PM 84.2 °F 28.4 °F 13% 30.10 in 10.0 mi WNW 13.8 mph 28.8 mph N/A   Mostly Cloudy
2:35 PM 84.2 °F 28.4 °F 13% 30.10 in 10.0 mi West 18.4 mph 27.6 mph N/A   Mostly Cloudy
2:55 PM 84.2 °F 28.4 °F 13% 30.10 in 10.0 mi West 19.6 mph 36.8 mph N/A   Scattered Clouds
3:15 PM 84.2 °F 28.4 °F 13% 30.10 in 10.0 mi West 20.7 mph 33.4 mph N/A   Mostly Cloudy
3:35 PM 84.2 °F 26.6 °F 12% 30.09 in 10.0 mi WNW 24.2 mph 33.4 mph N/A   Mostly Cloudy
3:55 PM 84.2 °F 28.4 °F 13% 30.09 in 10.0 mi WNW 20.7 mph 31.1 mph N/A   Scattered Clouds
4:15 PM 84.2 °F 28.4 °F 13% 30.09 in 10.0 mi West 20.7 mph 31.1 mph N/A   Clear
4:35 PM 82.4 °F 28.4 °F 14% 30.08 in 10.0 mi West 19.6 mph 29.9 mph N/A   Clear
4:55 PM 82.4 °F 28.4 °F 14% 30.08 in 10.0 mi West 24.2 mph 33.4 mph N/A   Clear
5:15 PM 82.4 °F 28.4 °F 14% 30.07 in 10.0 mi West 24.2 mph 34.5 mph N/A   Clear
5:35 PM 80.6 °F 28.4 °F 15% 30.07 in 10.0 mi West 19.6 mph 32.2 mph N/A   Clear
5:55 PM 80.6 °F 28.4 °F 15% 30.08 in 10.0 mi West 25.3 mph 32.2 mph N/A   Clear
6:15 PM 80.6 °F 28.4 °F 15% 30.07 in 10.0 mi West 20.7 mph 33.4 mph N/A   Clear
6:35 PM 78.8 °F 28.4 °F 16% 30.07 in 10.0 mi West 23.0 mph 29.9 mph N/A   Clear
6:55 PM 78.8 °F 28.4 °F 16% 30.07 in 10.0 mi WSW 17.3 mph 26.5 mph N/A   Clear
7:15 PM 77.0 °F 28.4 °F 17% 30.07 in 10.0 mi WSW 18.4 mph 28.8 mph N/A   Clear
7:35 PM 77.0 °F 26.6 °F 16% 30.08 in 10.0 mi West 17.3 mph 24.2 mph N/A   Clear
7:55 PM 73.4 °F 26.6 °F 18% 30.09 in 10.0 mi West 11.5 mph 25.3 mph N/A   Clear
8:15 PM 73.4 °F 26.6 °F 18% 30.09 in 10.0 mi WSW 10.4 mph 18.4 mph N/A   Clear
8:35 PM 71.6 °F 28.4 °F 20% 30.10 in 10.0 mi NW 12.7 mph 21.9 mph N/A   Clear
8:55 PM 71.6 °F 28.4 °F 20% 30.11 in 10.0 mi NNW 5.8 mph 24.2 mph N/A   Clear
9:15 PM 68.0 °F 28.4 °F 23% 30.11 in 10.0 mi ENE 3.5 mph - N/A   Clear
9:35 PM 71.6 °F 23.0 °F 16% 30.12 in 10.0 mi SSW 17.3 mph 26.5 mph N/A   Clear
9:55 PM 73.4 °F 21.2 °F 14% 30.12 in 10.0 mi South 15.0 mph 26.5 mph N/A   Scattered Clouds
10:15 PM 71.6 °F 21.2 °F 15% 30.12 in 10.0 mi South 16.1 mph 26.5 mph N/A   Mostly Cloudy
10:35 PM 71.6 °F 21.2 °F 15% 30.12 in 10.0 mi South 13.8 mph 20.7 mph N/A   Mostly Cloudy
10:55 PM 68.0 °F 26.6 °F 21% 30.12 in 10.0 mi ESE 6.9 mph - N/A   Scattered Clouds
11:15 PM 66.2 °F 26.6 °F 23% 30.13 in 10.0 mi West 6.9 mph - N/A   Mostly Cloudy
11:35 PM 66.2 °F 30.2 °F 26% 30.13 in 10.0 mi SSE 6.9 mph - N/A   Overcast
11:55 PM 64.4 °F 30.2 °F 28% 30.13 in 10.0 mi North 4.6 mph - N/A   Scattered Clouds